Year,Month,Day,Hour,Minute,Value (Times are PST for temperature in C)
2021,06,26,00,00,25.00
2021,06,26,00,01,25.00
2021,06,26,00,02,24.90
2021,06,26,00,03,24.90
2021,06,26,00,04,24.80
2021,06,26,00,05,24.80
2021,06,26,00,06,24.70
2021,06,26,00,07,24.70
2021,06,26,00,08,24.70
2021,06,26,00,09,24.60
2021,06,26,00,10,24.60
2021,06,26,00,11,24.60
2021,06,26,00,12,24.70
2021,06,26,00,13,24.70
2021,06,26,00,14,24.70
2021,06,26,00,15,24.80
2021,06,26,00,16,24.80
2021,06,26,00,17,24.70
2021,06,26,00,18,24.70
2021,06,26,00,19,24.70
2021,06,26,00,20,24.60
2021,06,26,00,21,24.60
2021,06,26,00,22,24.60
2021,06,26,00,23,24.60
2021,06,26,00,24,24.50
2021,06,26,00,25,24.40
2021,06,26,00,26,24.40
2021,06,26,00,27,24.40
2021,06,26,00,28,24.30
2021,06,26,00,29,24.20
2021,06,26,00,30,24.20
2021,06,26,00,31,24.20
2021,06,26,00,32,24.20
2021,06,26,00,33,24.10
2021,06,26,00,34,24.10
2021,06,26,00,35,24.10
2021,06,26,00,36,24.00
2021,06,26,00,37,23.90
2021,06,26,00,38,23.90
2021,06,26,00,39,23.80
2021,06,26,00,40,23.80
2021,06,26,00,41,23.70
2021,06,26,00,42,23.70
2021,06,26,00,43,23.80
2021,06,26,00,44,23.80
2021,06,26,00,45,23.80
2021,06,26,00,46,23.80
2021,06,26,00,47,23.80
2021,06,26,00,48,23.90
2021,06,26,00,49,23.90
2021,06,26,00,50,23.90
2021,06,26,00,51,23.90
2021,06,26,00,52,24.00
2021,06,26,00,53,24.10
2021,06,26,00,54,24.30
2021,06,26,00,55,24.60
2021,06,26,00,56,24.80
2021,06,26,00,57,25.10
2021,06,26,00,58,25.30
2021,06,26,00,59,25.60
2021,06,26,01,00,25.80
2021,06,26,01,01,26.00
2021,06,26,01,02,26.20
2021,06,26,01,03,26.40
2021,06,26,01,04,26.60
2021,06,26,01,05,26.70
2021,06,26,01,06,26.80
2021,06,26,01,07,26.80
2021,06,26,01,08,26.90
2021,06,26,01,09,27.00
2021,06,26,01,10,27.00
2021,06,26,01,11,27.00
2021,06,26,01,12,27.00
2021,06,26,01,13,27.00
2021,06,26,01,14,27.00
2021,06,26,01,15,27.00
2021,06,26,01,16,27.00
2021,06,26,01,17,26.90
2021,06,26,01,18,26.90
2021,06,26,01,19,26.90
2021,06,26,01,20,26.80
2021,06,26,01,21,26.80
2021,06,26,01,22,26.70
2021,06,26,01,23,26.70
2021,06,26,01,24,26.70
2021,06,26,01,25,26.70
2021,06,26,01,26,26.70
2021,06,26,01,27,26.70
2021,06,26,01,28,26.60
2021,06,26,01,29,26.60
2021,06,26,01,30,26.60
2021,06,26,01,31,26.70
2021,06,26,01,32,26.70
2021,06,26,01,33,26.70
2021,06,26,01,34,26.60
2021,06,26,01,35,26.60
2021,06,26,01,36,26.60
2021,06,26,01,37,26.50
2021,06,26,01,38,26.50
2021,06,26,01,39,26.40
2021,06,26,01,40,26.40
2021,06,26,01,41,26.30
2021,06,26,01,42,26.30
2021,06,26,01,43,26.30
2021,06,26,01,44,26.20
2021,06,26,01,45,26.20
2021,06,26,01,46,26.20
2021,06,26,01,47,26.10
2021,06,26,01,48,26.10
2021,06,26,01,49,26.00
2021,06,26,01,50,26.00
2021,06,26,01,51,26.00
2021,06,26,01,52,25.90
2021,06,26,01,53,25.90
2021,06,26,01,54,25.90
2021,06,26,01,55,25.90
2021,06,26,01,56,25.90
2021,06,26,01,57,25.90
2021,06,26,01,58,25.90
2021,06,26,01,59,25.80
2021,06,26,02,00,25.80
2021,06,26,02,01,25.80
2021,06,26,02,02,25.80
2021,06,26,02,03,25.80
2021,06,26,02,04,25.70
2021,06,26,02,05,25.70
2021,06,26,02,06,25.70
2021,06,26,02,07,25.70
2021,06,26,02,08,25.70
2021,06,26,02,09,25.70
2021,06,26,02,10,25.70
2021,06,26,02,11,25.70
2021,06,26,02,12,25.70
2021,06,26,02,13,25.70
2021,06,26,02,14,25.70
2021,06,26,02,15,25.60
2021,06,26,02,16,25.60
2021,06,26,02,17,25.50
2021,06,26,02,18,25.40
2021,06,26,02,19,25.40
2021,06,26,02,20,25.40
2021,06,26,02,21,25.40
2021,06,26,02,22,25.30
2021,06,26,02,23,25.30
2021,06,26,02,24,25.30
2021,06,26,02,25,25.30
2021,06,26,02,26,25.20
2021,06,26,02,27,25.20
2021,06,26,02,28,25.20
2021,06,26,02,29,25.10
2021,06,26,02,30,25.10
2021,06,26,02,31,25.10
2021,06,26,02,32,25.00
2021,06,26,02,33,25.00
2021,06,26,02,34,24.90
2021,06,26,02,35,24.80
2021,06,26,02,36,24.70
2021,06,26,02,37,24.60
2021,06,26,02,38,24.40
2021,06,26,02,39,24.30
2021,06,26,02,40,24.20
2021,06,26,02,41,24.10
2021,06,26,02,42,24.00
2021,06,26,02,43,24.00
2021,06,26,02,44,23.90
2021,06,26,02,45,23.90
2021,06,26,02,46,23.80
2021,06,26,02,47,23.70
2021,06,26,02,48,23.60
2021,06,26,02,49,23.60
2021,06,26,02,50,23.40
2021,06,26,02,51,23.30
2021,06,26,02,52,23.30
2021,06,26,02,53,23.20
2021,06,26,02,54,23.10
2021,06,26,02,55,23.00
2021,06,26,02,56,23.00
2021,06,26,02,57,23.00
2021,06,26,02,58,23.00
2021,06,26,02,59,23.00
2021,06,26,03,00,22.90
2021,06,26,03,01,22.90
2021,06,26,03,02,22.90
2021,06,26,03,03,22.80
2021,06,26,03,04,22.80
2021,06,26,03,05,22.80
2021,06,26,03,06,22.70
2021,06,26,03,07,22.70
2021,06,26,03,08,22.70
2021,06,26,03,09,22.60
2021,06,26,03,10,22.60
2021,06,26,03,11,22.50
2021,06,26,03,12,22.50
2021,06,26,03,13,22.40
2021,06,26,03,14,22.40
2021,06,26,03,15,22.30
2021,06,26,03,16,22.30
2021,06,26,03,17,22.20
2021,06,26,03,18,22.20
2021,06,26,03,19,22.20
2021,06,26,03,20,22.20
2021,06,26,03,21,22.10
2021,06,26,03,22,22.10
2021,06,26,03,23,22.00
2021,06,26,03,24,21.90
2021,06,26,03,25,21.90
2021,06,26,03,26,21.80
2021,06,26,03,27,21.90
2021,06,26,03,28,22.00
2021,06,26,03,29,22.00
2021,06,26,03,30,22.10
2021,06,26,03,31,22.10
2021,06,26,03,32,22.10
2021,06,26,03,33,22.10
2021,06,26,03,34,22.10
2021,06,26,03,35,22.10
2021,06,26,03,36,22.10
2021,06,26,03,37,22.00
2021,06,26,03,38,21.90
2021,06,26,03,39,21.90
2021,06,26,03,40,21.80
2021,06,26,03,41,21.80
2021,06,26,03,42,21.80
2021,06,26,03,43,21.80
2021,06,26,03,44,21.80
2021,06,26,03,45,21.80
2021,06,26,03,46,21.80
2021,06,26,03,47,21.80
2021,06,26,03,48,21.80
2021,06,26,03,49,21.80
2021,06,26,03,50,21.80
2021,06,26,03,51,21.80
2021,06,26,03,52,21.80
2021,06,26,03,53,21.80
2021,06,26,03,54,21.80
2021,06,26,03,55,21.80
2021,06,26,03,56,21.80
2021,06,26,03,57,21.80
2021,06,26,03,58,21.80
2021,06,26,03,59,21.80
2021,06,26,04,00,21.80
2021,06,26,04,01,21.70
2021,06,26,04,02,21.70
2021,06,26,04,03,21.60
2021,06,26,04,04,21.60
2021,06,26,04,05,21.60
2021,06,26,04,06,21.50
2021,06,26,04,07,21.50
2021,06,26,04,08,21.60
2021,06,26,04,09,21.60
2021,06,26,04,10,21.80
2021,06,26,04,11,22.00
2021,06,26,04,12,22.20
2021,06,26,04,13,22.30
2021,06,26,04,14,22.40
2021,06,26,04,15,22.40
2021,06,26,04,16,22.40
2021,06,26,04,17,22.40
2021,06,26,04,18,22.40
2021,06,26,04,19,22.40
2021,06,26,04,20,22.40
2021,06,26,04,21,22.40
2021,06,26,04,22,22.40
2021,06,26,04,23,22.30
2021,06,26,04,24,22.30
2021,06,26,04,25,22.20
2021,06,26,04,26,22.20
2021,06,26,04,27,22.10
2021,06,26,04,28,22.10
2021,06,26,04,29,22.00
2021,06,26,04,30,22.00
2021,06,26,04,31,21.90
2021,06,26,04,32,21.80
2021,06,26,04,33,21.80
2021,06,26,04,34,21.80
2021,06,26,04,35,21.70
2021,06,26,04,36,21.70
2021,06,26,04,37,21.60
2021,06,26,04,38,21.60
2021,06,26,04,39,21.50
2021,06,26,04,40,21.50
2021,06,26,04,41,21.50
2021,06,26,04,42,21.50
2021,06,26,04,43,21.50
2021,06,26,04,44,21.50
2021,06,26,04,45,21.50
2021,06,26,04,46,21.50
2021,06,26,04,47,21.50
2021,06,26,04,48,21.50
2021,06,26,04,49,21.40
2021,06,26,04,50,21.40
2021,06,26,04,51,21.30
2021,06,26,04,52,21.30
2021,06,26,04,53,21.30
2021,06,26,04,54,21.30
2021,06,26,04,55,21.30
2021,06,26,04,56,21.30
2021,06,26,04,57,21.30
2021,06,26,04,58,21.30
2021,06,26,04,59,21.30
2021,06,26,05,00,21.30
2021,06,26,05,01,21.40
2021,06,26,05,02,21.40
2021,06,26,05,03,21.50
2021,06,26,05,04,21.50
2021,06,26,05,05,21.50
2021,06,26,05,06,21.50
2021,06,26,05,07,21.50
2021,06,26,05,08,21.40
2021,06,26,05,09,21.40
2021,06,26,05,10,21.40
2021,06,26,05,11,21.30
2021,06,26,05,12,21.30
2021,06,26,05,13,21.30
2021,06,26,05,14,21.30
2021,06,26,05,15,21.30
2021,06,26,05,16,21.30
2021,06,26,05,17,21.30
2021,06,26,05,18,21.30
2021,06,26,05,19,21.30
2021,06,26,05,20,21.20
2021,06,26,05,21,21.30
2021,06,26,05,22,21.30
2021,06,26,05,23,21.20
2021,06,26,05,24,21.20
2021,06,26,05,25,21.20
2021,06,26,05,26,21.20
2021,06,26,05,27,21.20
2021,06,26,05,28,21.10
2021,06,26,05,29,21.10
2021,06,26,05,30,21.10
2021,06,26,05,31,21.00
2021,06,26,05,32,21.00
2021,06,26,05,33,20.90
2021,06,26,05,34,20.90
2021,06,26,05,35,20.90
2021,06,26,05,36,20.90
2021,06,26,05,37,20.90
2021,06,26,05,38,20.90
2021,06,26,05,39,20.80
2021,06,26,05,40,20.80
2021,06,26,05,41,20.80
2021,06,26,05,42,20.80
2021,06,26,05,43,20.80
2021,06,26,05,44,20.80
2021,06,26,05,45,20.80
2021,06,26,05,46,20.80
2021,06,26,05,47,20.80
2021,06,26,05,48,20.90
2021,06,26,05,49,20.90
2021,06,26,05,50,20.90
2021,06,26,05,51,20.90
2021,06,26,05,52,20.90
2021,06,26,05,53,21.00
2021,06,26,05,54,21.00
2021,06,26,05,55,21.00
2021,06,26,05,56,21.00
2021,06,26,05,57,21.00
2021,06,26,05,58,21.00
2021,06,26,05,59,21.00
2021,06,26,06,00,21.00
2021,06,26,06,01,20.90
2021,06,26,06,02,20.90
2021,06,26,06,03,20.90
2021,06,26,06,04,20.90
2021,06,26,06,05,20.90
2021,06,26,06,06,21.00
2021,06,26,06,07,21.00
2021,06,26,06,08,21.00
2021,06,26,06,09,21.00
2021,06,26,06,10,21.00
2021,06,26,06,11,21.10
2021,06,26,06,12,21.10
2021,06,26,06,13,21.10
2021,06,26,06,14,21.10
2021,06,26,06,15,21.10
2021,06,26,06,16,21.10
2021,06,26,06,17,21.10
2021,06,26,06,18,21.10
2021,06,26,06,19,21.10
2021,06,26,06,20,21.10
2021,06,26,06,21,21.20
2021,06,26,06,22,21.20
2021,06,26,06,23,21.20
2021,06,26,06,24,21.20
2021,06,26,06,25,21.20
2021,06,26,06,26,21.20
2021,06,26,06,27,21.30
2021,06,26,06,28,21.30
2021,06,26,06,29,21.30
2021,06,26,06,30,21.30
2021,06,26,06,31,21.30
2021,06,26,06,32,21.30
2021,06,26,06,33,21.40
2021,06,26,06,34,21.40
2021,06,26,06,35,21.50
2021,06,26,06,36,21.50
2021,06,26,06,37,21.60
2021,06,26,06,38,21.70
2021,06,26,06,39,21.70
2021,06,26,06,40,21.80
2021,06,26,06,41,21.90
2021,06,26,06,42,22.00
2021,06,26,06,43,22.10
2021,06,26,06,44,22.20
2021,06,26,06,45,22.20
2021,06,26,06,46,22.30
2021,06,26,06,47,22.40
2021,06,26,06,48,22.40
2021,06,26,06,49,22.50
2021,06,26,06,50,22.50
2021,06,26,06,51,22.50
2021,06,26,06,52,22.60
2021,06,26,06,53,22.70
2021,06,26,06,54,22.70
2021,06,26,06,55,22.80
2021,06,26,06,56,22.90
2021,06,26,06,57,23.00
2021,06,26,06,58,23.10
2021,06,26,06,59,23.20
2021,06,26,07,00,23.40
2021,06,26,07,01,23.50
2021,06,26,07,02,23.70
2021,06,26,07,03,23.80
2021,06,26,07,04,23.90
2021,06,26,07,05,24.00
2021,06,26,07,06,24.20
2021,06,26,07,07,24.30
2021,06,26,07,08,24.40
2021,06,26,07,09,24.60
2021,06,26,07,10,24.70
2021,06,26,07,11,24.90
2021,06,26,07,12,25.00
2021,06,26,07,13,25.20
2021,06,26,07,14,25.30
2021,06,26,07,15,25.40
2021,06,26,07,16,25.60
2021,06,26,07,17,25.70
2021,06,26,07,18,25.80
2021,06,26,07,19,25.90
2021,06,26,07,20,26.00
2021,06,26,07,21,26.10
2021,06,26,07,22,26.20
2021,06,26,07,23,26.20
2021,06,26,07,24,26.20
2021,06,26,07,25,26.20
2021,06,26,07,26,26.30
2021,06,26,07,27,26.30
2021,06,26,07,28,26.30
2021,06,26,07,29,26.30
2021,06,26,07,30,26.30
2021,06,26,07,31,26.30
2021,06,26,07,32,26.20
2021,06,26,07,33,26.20
2021,06,26,07,34,26.20
2021,06,26,07,35,26.20
2021,06,26,07,36,26.20
2021,06,26,07,37,26.20
2021,06,26,07,38,26.20
2021,06,26,07,39,26.30
2021,06,26,07,40,26.30
2021,06,26,07,41,26.30
2021,06,26,07,42,26.40
2021,06,26,07,43,26.40
2021,06,26,07,44,26.50
2021,06,26,07,45,26.40
2021,06,26,07,46,26.40
2021,06,26,07,47,26.30
2021,06,26,07,48,26.20
2021,06,26,07,49,26.10
2021,06,26,07,50,26.10
2021,06,26,07,51,26.00
2021,06,26,07,52,25.90
2021,06,26,07,53,25.80
2021,06,26,07,54,25.80
2021,06,26,07,55,25.70
2021,06,26,07,56,25.80
2021,06,26,07,57,25.80
2021,06,26,07,58,25.80
2021,06,26,07,59,25.90
2021,06,26,08,00,25.90
2021,06,26,08,01,25.90
2021,06,26,08,02,25.90
2021,06,26,08,03,25.90
2021,06,26,08,04,25.90
2021,06,26,08,05,25.90
2021,06,26,08,06,25.90
2021,06,26,08,07,25.90
2021,06,26,08,08,25.90
2021,06,26,08,09,25.80
2021,06,26,08,10,25.80
2021,06,26,08,11,25.80
2021,06,26,08,12,25.80
2021,06,26,08,13,25.80
2021,06,26,08,14,25.90
2021,06,26,08,15,25.90
2021,06,26,08,16,25.80
2021,06,26,08,17,25.80
2021,06,26,08,18,25.80
2021,06,26,08,19,25.80
2021,06,26,08,20,25.80
2021,06,26,08,21,25.80
2021,06,26,08,22,25.80
2021,06,26,08,23,25.70
2021,06,26,08,24,25.70
2021,06,26,08,25,25.70
2021,06,26,08,26,25.70
2021,06,26,08,27,25.70
2021,06,26,08,28,25.70
2021,06,26,08,29,25.70
2021,06,26,08,30,25.80
2021,06,26,08,31,25.80
2021,06,26,08,32,25.90
2021,06,26,08,33,25.90
2021,06,26,08,34,25.90
2021,06,26,08,35,25.90
2021,06,26,08,36,25.90
2021,06,26,08,37,25.90
2021,06,26,08,38,25.90
2021,06,26,08,39,25.90
2021,06,26,08,40,26.00
2021,06,26,08,41,26.00
2021,06,26,08,42,26.10
2021,06,26,08,43,26.10
2021,06,26,08,44,26.20
2021,06,26,08,45,26.20
2021,06,26,08,46,26.20
2021,06,26,08,47,26.20
2021,06,26,08,48,26.30
2021,06,26,08,49,26.30
2021,06,26,08,50,26.40
2021,06,26,08,51,26.40
2021,06,26,08,52,26.60
2021,06,26,08,53,26.70
2021,06,26,08,54,26.70
2021,06,26,08,55,26.80
2021,06,26,08,56,26.90
2021,06,26,08,57,26.90
2021,06,26,08,58,26.90
2021,06,26,08,59,27.00
2021,06,26,09,00,27.10
2021,06,26,09,01,27.10
2021,06,26,09,02,27.10
2021,06,26,09,03,27.20
2021,06,26,09,04,27.20
2021,06,26,09,05,27.20
2021,06,26,09,06,27.30
2021,06,26,09,07,27.30
2021,06,26,09,08,27.40
2021,06,26,09,09,27.40
2021,06,26,09,10,27.40
2021,06,26,09,11,27.50
2021,06,26,09,12,27.50
2021,06,26,09,13,27.50
2021,06,26,09,14,27.50
2021,06,26,09,15,27.50
2021,06,26,09,16,27.50
2021,06,26,09,17,27.50
2021,06,26,09,18,27.60
2021,06,26,09,19,27.60
2021,06,26,09,20,27.70
2021,06,26,09,21,27.70
2021,06,26,09,22,27.80
2021,06,26,09,23,27.80
2021,06,26,09,24,27.80
2021,06,26,09,25,27.80
2021,06,26,09,26,27.90
2021,06,26,09,27,27.90
2021,06,26,09,28,28.00
2021,06,26,09,29,28.10
2021,06,26,09,30,28.10
2021,06,26,09,31,28.10
2021,06,26,09,32,28.20
2021,06,26,09,33,28.20
2021,06,26,09,34,28.20
2021,06,26,09,35,28.30
2021,06,26,09,36,28.30
2021,06,26,09,37,28.30
2021,06,26,09,38,28.40
2021,06,26,09,39,28.50
2021,06,26,09,40,28.60
2021,06,26,09,41,28.60
2021,06,26,09,42,28.60
2021,06,26,09,43,28.50
2021,06,26,09,44,28.50
2021,06,26,09,45,28.50
2021,06,26,09,46,28.60
2021,06,26,09,47,28.60
2021,06,26,09,48,28.70
2021,06,26,09,49,28.80
2021,06,26,09,50,28.80
2021,06,26,09,51,28.90
2021,06,26,09,52,28.90
2021,06,26,09,53,28.90
2021,06,26,09,54,29.00
2021,06,26,09,55,29.00
2021,06,26,09,56,28.90
2021,06,26,09,57,28.90
2021,06,26,09,58,28.80
2021,06,26,09,59,28.80
2021,06,26,10,00,28.80
2021,06,26,10,01,28.80
2021,06,26,10,02,28.80
2021,06,26,10,03,28.80
2021,06,26,10,04,28.90
2021,06,26,10,05,29.00
2021,06,26,10,06,29.00
2021,06,26,10,07,29.20
2021,06,26,10,08,29.30
2021,06,26,10,09,29.30
2021,06,26,10,10,29.40
2021,06,26,10,11,29.40
2021,06,26,10,12,29.50
2021,06,26,10,13,29.60
2021,06,26,10,14,29.60
2021,06,26,10,15,29.60
2021,06,26,10,16,29.50
2021,06,26,10,17,29.40
2021,06,26,10,18,29.30
2021,06,26,10,19,29.30
2021,06,26,10,20,29.30
2021,06,26,10,21,29.30
2021,06,26,10,22,29.30
2021,06,26,10,23,29.40
2021,06,26,10,24,29.40
2021,06,26,10,25,29.50
2021,06,26,10,26,29.50
2021,06,26,10,27,29.50
2021,06,26,10,28,29.50
2021,06,26,10,29,29.60
2021,06,26,10,30,29.60
2021,06,26,10,31,29.60
2021,06,26,10,32,29.60
2021,06,26,10,33,29.70
2021,06,26,10,34,29.70
2021,06,26,10,35,29.80
2021,06,26,10,36,29.90
2021,06,26,10,37,29.90
2021,06,26,10,38,29.90
2021,06,26,10,39,30.00
2021,06,26,10,40,30.00
2021,06,26,10,41,30.10
2021,06,26,10,42,30.10
2021,06,26,10,43,30.00
2021,06,26,10,44,30.00
2021,06,26,10,45,29.90
2021,06,26,10,46,29.90
2021,06,26,10,47,29.90
2021,06,26,10,48,30.00
2021,06,26,10,49,30.10
2021,06,26,10,50,30.10
2021,06,26,10,51,30.10
2021,06,26,10,52,30.10
2021,06,26,10,53,30.10
2021,06,26,10,54,30.10
2021,06,26,10,55,30.10
2021,06,26,10,56,30.10
2021,06,26,10,57,30.20
2021,06,26,10,58,30.30
2021,06,26,10,59,30.40
2021,06,26,11,00,30.50
2021,06,26,11,01,30.50
2021,06,26,11,02,30.50
2021,06,26,11,03,30.50
2021,06,26,11,04,30.50
2021,06,26,11,05,30.50
2021,06,26,11,06,30.50
2021,06,26,11,07,30.50
2021,06,26,11,08,30.40
2021,06,26,11,09,30.30
2021,06,26,11,10,30.30
2021,06,26,11,11,30.30
2021,06,26,11,12,30.30
2021,06,26,11,13,30.40
2021,06,26,11,14,30.40
2021,06,26,11,15,30.50
2021,06,26,11,16,30.50
2021,06,26,11,17,30.50
2021,06,26,11,18,30.40
2021,06,26,11,19,30.50
2021,06,26,11,20,30.60
2021,06,26,11,21,30.60
2021,06,26,11,22,30.60
2021,06,26,11,23,30.60
2021,06,26,11,24,30.60
2021,06,26,11,25,30.60
2021,06,26,11,26,30.60
2021,06,26,11,27,30.60
2021,06,26,11,28,30.50
2021,06,26,11,29,30.40
2021,06,26,11,30,30.40
2021,06,26,11,31,30.40
2021,06,26,11,32,30.40
2021,06,26,11,33,30.50
2021,06,26,11,34,30.50
2021,06,26,11,35,30.50
2021,06,26,11,36,30.50
2021,06,26,11,37,30.50
2021,06,26,11,38,30.60
2021,06,26,11,39,30.60
2021,06,26,11,40,30.70
2021,06,26,11,41,30.70
2021,06,26,11,42,30.70
2021,06,26,11,43,30.70
2021,06,26,11,44,30.70
2021,06,26,11,45,30.70
2021,06,26,11,46,30.80
2021,06,26,11,47,30.80
2021,06,26,11,48,30.80
2021,06,26,11,49,30.90
2021,06,26,11,50,30.90
2021,06,26,11,51,31.00
2021,06,26,11,52,31.00
2021,06,26,11,53,31.10
2021,06,26,11,54,31.20
2021,06,26,11,55,31.20
2021,06,26,11,56,31.30
2021,06,26,11,57,31.30
2021,06,26,11,58,31.30
2021,06,26,11,59,31.30
2021,06,26,12,00,31.30
2021,06,26,12,01,31.30
2021,06,26,12,02,31.30
2021,06,26,12,03,31.30
2021,06,26,12,04,31.30
2021,06,26,12,05,31.40
2021,06,26,12,06,31.40
2021,06,26,12,07,31.40
2021,06,26,12,08,31.50
2021,06,26,12,09,31.60
2021,06,26,12,10,31.70
2021,06,26,12,11,31.90
2021,06,26,12,12,31.90
2021,06,26,12,13,31.90
2021,06,26,12,14,31.90
2021,06,26,12,15,31.90
2021,06,26,12,16,31.80
2021,06,26,12,17,31.80
2021,06,26,12,18,31.70
2021,06,26,12,19,31.60
2021,06,26,12,20,31.60
2021,06,26,12,21,31.60
2021,06,26,12,22,31.60
2021,06,26,12,23,31.70
2021,06,26,12,24,31.70
2021,06,26,12,25,31.80
2021,06,26,12,26,31.80
2021,06,26,12,27,31.80
2021,06,26,12,28,31.90
2021,06,26,12,29,31.90
2021,06,26,12,30,31.90
2021,06,26,12,31,31.90
2021,06,26,12,32,31.90
2021,06,26,12,33,31.90
2021,06,26,12,34,31.80
2021,06,26,12,35,31.80
2021,06,26,12,36,31.80
2021,06,26,12,37,31.70
2021,06,26,12,38,31.70
2021,06,26,12,39,31.70
2021,06,26,12,40,31.70
2021,06,26,12,41,31.70
2021,06,26,12,42,31.80
2021,06,26,12,43,31.80
2021,06,26,12,44,31.80
2021,06,26,12,45,31.90
2021,06,26,12,46,31.90
2021,06,26,12,47,31.90
2021,06,26,12,48,32.00
2021,06,26,12,49,32.10
2021,06,26,12,50,32.10
2021,06,26,12,51,32.10
2021,06,26,12,52,32.10
2021,06,26,12,53,32.10
2021,06,26,12,54,32.00
2021,06,26,12,55,32.00
2021,06,26,12,56,32.10
2021,06,26,12,57,32.20
2021,06,26,12,58,32.30
2021,06,26,12,59,32.30
2021,06,26,13,00,32.30
2021,06,26,13,01,32.30
2021,06,26,13,02,32.30
2021,06,26,13,03,32.30
2021,06,26,13,04,32.40
2021,06,26,13,05,32.40
2021,06,26,13,06,32.40
2021,06,26,13,07,32.40
2021,06,26,13,08,32.40
2021,06,26,13,09,32.50
2021,06,26,13,10,32.50
2021,06,26,13,11,32.60
2021,06,26,13,12,32.60
2021,06,26,13,13,32.70
2021,06,26,13,14,32.70
2021,06,26,13,15,32.70
2021,06,26,13,16,32.70
2021,06,26,13,17,32.70
2021,06,26,13,18,32.70
2021,06,26,13,19,32.60
2021,06,26,13,20,32.60
2021,06,26,13,21,32.60
2021,06,26,13,22,32.70
2021,06,26,13,23,32.80
2021,06,26,13,24,32.80
2021,06,26,13,25,32.80
2021,06,26,13,26,32.80
2021,06,26,13,27,32.80
2021,06,26,13,28,32.90
2021,06,26,13,29,32.90
2021,06,26,13,30,32.90
2021,06,26,13,31,32.80
2021,06,26,13,32,32.80
2021,06,26,13,33,32.80
2021,06,26,13,34,32.80
2021,06,26,13,35,32.80
2021,06,26,13,36,32.80
2021,06,26,13,37,32.80
2021,06,26,13,38,32.90
2021,06,26,13,39,32.90
2021,06,26,13,40,32.90
2021,06,26,13,41,32.90
2021,06,26,13,42,32.90
2021,06,26,13,43,32.90
2021,06,26,13,44,33.00
2021,06,26,13,45,33.10
2021,06,26,13,46,33.10
2021,06,26,13,47,33.10
2021,06,26,13,48,33.20
2021,06,26,13,49,33.20
2021,06,26,13,50,33.30
2021,06,26,13,51,33.30
2021,06,26,13,52,33.30
2021,06,26,13,53,33.20
2021,06,26,13,54,33.20
2021,06,26,13,55,33.20
2021,06,26,13,56,33.20
2021,06,26,13,57,33.20
2021,06,26,13,58,33.20
2021,06,26,13,59,33.20
2021,06,26,14,00,33.20
2021,06,26,14,01,33.10
2021,06,26,14,02,33.10
2021,06,26,14,03,33.20
2021,06,26,14,04,33.30
2021,06,26,14,05,33.20
2021,06,26,14,06,33.20
2021,06,26,14,07,33.20
2021,06,26,14,08,33.20
2021,06,26,14,09,33.10
2021,06,26,14,10,33.10
2021,06,26,14,11,33.20
2021,06,26,14,12,33.30
2021,06,26,14,13,33.40
2021,06,26,14,14,33.40
2021,06,26,14,15,33.50
2021,06,26,14,16,33.60
2021,06,26,14,17,33.70
2021,06,26,14,18,33.70
2021,06,26,14,19,33.80
2021,06,26,14,20,33.80
2021,06,26,14,21,33.90
2021,06,26,14,22,33.90
2021,06,26,14,23,34.00
2021,06,26,14,24,34.00
2021,06,26,14,25,33.90
2021,06,26,14,26,33.90
2021,06,26,14,27,34.00
2021,06,26,14,28,34.00
2021,06,26,14,29,34.10
2021,06,26,14,30,34.10
2021,06,26,14,31,34.00
2021,06,26,14,32,33.90
2021,06,26,14,33,33.80
2021,06,26,14,34,33.90
2021,06,26,14,35,33.90
2021,06,26,14,36,34.00
2021,06,26,14,37,34.10
2021,06,26,14,38,34.20
2021,06,26,14,39,34.30
2021,06,26,14,40,34.40
2021,06,26,14,41,34.50
2021,06,26,14,42,34.60
2021,06,26,14,43,34.60
2021,06,26,14,44,34.60
2021,06,26,14,45,34.70
2021,06,26,14,46,34.80
2021,06,26,14,47,34.90
2021,06,26,14,48,34.90
2021,06,26,14,49,34.90
2021,06,26,14,50,34.80
2021,06,26,14,51,34.80
2021,06,26,14,52,34.80
2021,06,26,14,53,34.80
2021,06,26,14,54,34.80
2021,06,26,14,55,34.70
2021,06,26,14,56,34.70
2021,06,26,14,57,34.60
2021,06,26,14,58,34.60
2021,06,26,14,59,34.70
2021,06,26,15,00,34.80
2021,06,26,15,01,34.80
2021,06,26,15,02,34.90
2021,06,26,15,03,34.90
2021,06,26,15,04,35.00
2021,06,26,15,05,35.00
2021,06,26,15,06,35.00
2021,06,26,15,07,35.00
2021,06,26,15,08,34.90
2021,06,26,15,09,34.90
2021,06,26,15,10,34.90
2021,06,26,15,11,34.80
2021,06,26,15,12,34.80
2021,06,26,15,13,34.80
2021,06,26,15,14,34.80
2021,06,26,15,15,34.90
2021,06,26,15,16,35.00
2021,06,26,15,17,35.00
2021,06,26,15,18,35.10
2021,06,26,15,19,35.20
2021,06,26,15,20,35.20
2021,06,26,15,21,35.20
2021,06,26,15,22,35.20
2021,06,26,15,23,35.10
2021,06,26,15,24,35.10
2021,06,26,15,25,35.20
2021,06,26,15,26,35.30
2021,06,26,15,27,35.30
2021,06,26,15,28,35.30
2021,06,26,15,29,35.30
2021,06,26,15,30,35.30
2021,06,26,15,31,35.20
2021,06,26,15,32,35.10
2021,06,26,15,33,35.10
2021,06,26,15,34,35.10
2021,06,26,15,35,35.10
2021,06,26,15,36,35.10
2021,06,26,15,37,35.00
2021,06,26,15,38,34.90
2021,06,26,15,39,34.90
2021,06,26,15,40,34.90
2021,06,26,15,41,34.80
2021,06,26,15,42,34.80
2021,06,26,15,43,34.80
2021,06,26,15,44,34.80
2021,06,26,15,45,34.70
2021,06,26,15,46,34.70
2021,06,26,15,47,34.70
2021,06,26,15,48,34.70
2021,06,26,15,49,34.70
2021,06,26,15,50,34.70
2021,06,26,15,51,34.70
2021,06,26,15,52,34.80
2021,06,26,15,53,34.80
2021,06,26,15,54,34.80
2021,06,26,15,55,34.80
2021,06,26,15,56,34.80
2021,06,26,15,57,34.90
2021,06,26,15,58,34.90
2021,06,26,15,59,35.00
2021,06,26,16,00,35.10
2021,06,26,16,01,35.10
2021,06,26,16,02,35.10
2021,06,26,16,03,35.20
2021,06,26,16,04,35.30
2021,06,26,16,05,35.40
2021,06,26,16,06,35.50
2021,06,26,16,07,35.60
2021,06,26,16,08,35.60
2021,06,26,16,09,35.60
2021,06,26,16,10,35.50
2021,06,26,16,11,35.40
2021,06,26,16,12,35.30
2021,06,26,16,13,35.20
2021,06,26,16,14,35.10
2021,06,26,16,15,35.10
2021,06,26,16,16,35.00
2021,06,26,16,17,35.00
2021,06,26,16,18,34.90
2021,06,26,16,19,34.90
2021,06,26,16,20,34.80
2021,06,26,16,21,34.90
2021,06,26,16,22,34.90
2021,06,26,16,23,35.00
2021,06,26,16,24,35.00
2021,06,26,16,25,35.00
2021,06,26,16,26,35.10
2021,06,26,16,27,35.10
2021,06,26,16,28,35.10
2021,06,26,16,29,35.10
2021,06,26,16,30,35.10
2021,06,26,16,31,35.10
2021,06,26,16,32,35.00
2021,06,26,16,33,35.00
2021,06,26,16,34,34.90
2021,06,26,16,35,34.80
2021,06,26,16,36,34.80
2021,06,26,16,37,34.80
2021,06,26,16,38,34.80
2021,06,26,16,39,34.90
2021,06,26,16,40,34.90
2021,06,26,16,41,35.00
2021,06,26,16,42,35.00
2021,06,26,16,43,35.00
2021,06,26,16,44,35.00
2021,06,26,16,45,35.00
2021,06,26,16,46,35.10
2021,06,26,16,47,35.10
2021,06,26,16,48,35.10
2021,06,26,16,49,35.20
2021,06,26,16,50,35.20
2021,06,26,16,51,35.20
2021,06,26,16,52,35.10
2021,06,26,16,53,35.10
2021,06,26,16,54,35.10
2021,06,26,16,55,35.10
2021,06,26,16,56,35.20
2021,06,26,16,57,35.30
2021,06,26,16,58,35.40
2021,06,26,16,59,35.50
2021,06,26,17,00,35.60
2021,06,26,17,01,35.70
2021,06,26,17,02,35.70
2021,06,26,17,03,35.70
2021,06,26,17,04,35.70
2021,06,26,17,05,35.70
2021,06,26,17,06,35.60
2021,06,26,17,07,35.60
2021,06,26,17,08,35.50
2021,06,26,17,09,35.50
2021,06,26,17,10,35.40
2021,06,26,17,11,35.40
2021,06,26,17,12,35.40
2021,06,26,17,13,35.30
2021,06,26,17,14,35.20
2021,06,26,17,15,35.10
2021,06,26,17,16,35.10
2021,06,26,17,17,35.10
2021,06,26,17,18,35.10
2021,06,26,17,19,35.10